Ely, NV

6:06 AM PST on February 25, 2018 (GMT -0800)
Ely

Weather History for KELY - January, 2012

Change the Weather History Date:

Friday, January 27, 2012

  Actual Average Record
Temperature  
Mean Temperature 23 °F 26 °F  
Max Temperature 35 °F 40 °F 59 °F (1986)
Min Temperature 10 °F 12 °F -19 °F (1895)
Degree Days  
Heating Degree Days 42 39  
Month to date heating degree days 911 1074  
Since 1 July heating degree days 3738 4174  
Cooling Degree Days 0 0  
Month to date cooling degree days 0 0  
Year to date cooling degree days 0 0  
Moisture  
Dew Point 12 °F    
Average Humidity 56    
Maximum Humidity 80    
Minimum Humidity 32    
Precipitation  
Precipitation 0.00 in 0.02 in 0.46 in (1956)
Month to date precipitation 0.67 0.61  
Year to date precipitation 0.67 0.61  
Snow  
Snow 0.00 in 0.30 in 5.10 in (2013)
Month to date snowfall 8.9 8.0  
Since 1 July snowfall 20.8 25.9  
Snow Depth 2.00 in    
Sea Level Pressure  
Sea Level Pressure 30.39 in    
Wind  
Wind Speed 8 mph (NNW)    
Max Wind Speed 17 mph    
Max Gust Speed 21 mph    
Visibility 10 miles    
Events      
T = Trace of Precipitation, MM = Missing Value Source: NWS Daily Summary

Daily Weather History Graph

Daily Weather History Graph

Search for Another Location

Airport or City:

Trip Planner

Search our weather history database for the weather conditions in past years. The results will help you decide how hot, cold, wet, or windy it might be!

Date:

Astronomy

Jan. 27, 2012 Rise Set
Actual Time 6:50 AM PST 4:53 PM PST
Civil Twilight 6:22 AM PST 5:22 PM PST
Nautical Twilight 5:49 AM PST 5:54 PM PST
Astronomical Twilight 5:18 AM PST 6:26 PM PST
Moon 8:49 AM PST (1/27) 9:46 PM PST (1/27)
Length of Visible Light 11h 00m
Length of Day
10h 02m
Waxing Crescent, 20% of the Moon is Illuminated
Jan 27
Waxing Crescent
Jan 30
First Quarter
Feb 7
Full
Feb 14
Last Quarter
Feb 21
New

Hourly Weather History & Observations

Time (PST) Temp. Windchill Dew Point Humidity Pressure Visibility Wind Dir Wind Speed Gust Speed Precip Events Conditions
12:53 AM 32.0 °F - 26.1 °F 79% 30.16 in 10.0 mi Calm Calm - N/A   Scattered Clouds
1:53 AM 28.9 °F 23.9 °F 21.9 °F 75% 30.18 in 10.0 mi Variable 4.6 mph - N/A   Scattered Clouds
2:53 AM 26.1 °F 18.4 °F 19.0 °F 75% 30.20 in 10.0 mi WNW 6.9 mph - N/A   Clear
3:53 AM 25.0 °F 14.8 °F 18.0 °F 75% 30.24 in 10.0 mi West 10.4 mph - N/A   Clear
4:53 AM 23.0 °F 10.6 °F 15.1 °F 72% 30.28 in 10.0 mi WNW 13.8 mph - N/A   Clear
5:53 AM 21.9 °F 12.5 °F 10.9 °F 63% 30.31 in 10.0 mi WNW 8.1 mph - N/A   Clear
6:53 AM 21.9 °F 17.2 °F 9.0 °F 58% 30.35 in 10.0 mi NNW 3.5 mph - N/A   Clear
7:53 AM 25.0 °F 17.1 °F 14.0 °F 63% 30.37 in 10.0 mi NW 6.9 mph - N/A   Clear
8:53 AM 27.0 °F 18.7 °F 12.9 °F 56% 30.38 in 10.0 mi NNW 8.1 mph - N/A   Clear
9:53 AM 28.9 °F 19.2 °F 12.9 °F 51% 30.39 in 10.0 mi North 11.5 mph - N/A   Clear
10:53 AM 30.9 °F 22.8 °F 15.1 °F 52% 30.39 in 10.0 mi North 9.2 mph - N/A   Clear
11:53 AM 33.1 °F 24.4 °F 12.0 °F 42% 30.36 in 10.0 mi North 11.5 mph - N/A   Clear
12:53 PM 34.0 °F 25.5 °F 7.0 °F 32% 30.36 in 10.0 mi North 11.5 mph - N/A   Clear
1:53 PM 35.1 °F 25.5 °F 9.0 °F 34% 30.36 in 10.0 mi North 15.0 mph 20.7 mph N/A   Clear
2:53 PM 35.1 °F 27.4 °F 9.0 °F 34% 30.36 in 10.0 mi North 10.4 mph - N/A   Clear
3:53 PM 34.0 °F 26.0 °F 7.0 °F 32% 30.37 in 10.0 mi North 10.4 mph - N/A   Clear
4:53 PM 28.0 °F 18.1 °F 10.9 °F 49% 30.43 in 10.0 mi North 11.5 mph - N/A   Clear
5:53 PM 27.0 °F 17.3 °F 8.1 °F 45% 30.47 in 10.0 mi North 10.4 mph - N/A   Clear
6:53 PM 21.0 °F 11.4 °F 9.0 °F 60% 30.51 in 10.0 mi NW 8.1 mph - N/A   Clear
7:53 PM 15.1 °F 7.7 °F 8.1 °F 74% 30.55 in 10.0 mi NNW 4.6 mph - N/A   Clear
8:53 PM 21.9 °F 13.4 °F 9.0 °F 58% 30.52 in 10.0 mi North 6.9 mph - N/A   Clear
9:53 PM 14.0 °F 3.9 °F 8.1 °F 77% 30.56 in 10.0 mi SSE 6.9 mph - N/A   Clear
10:53 PM 12.0 °F 4.1 °F 6.1 °F 77% 30.58 in 10.0 mi South 4.6 mph - N/A   Clear
11:53 PM 10.0 °F -1.9 °F 5.0 °F 80% 30.58 in 10.0 mi South 8.1 mph - N/A   Clear